Location: Corcelles
(46.1547°N, 4.7234°E)
Time: 20:03:16
(UTC+00:00)

USA 238 - Pass Details

Date: 14 July 2020
Orbit: 1009 x 1203 km, 63.4° (Epoch: 11 August)

Event Time Altitude Azimuth Distance (km) Brightness Sun altitude
Exits shadow 02:58:32 - 195° (SSW) 3,063 5.6 -9.6°
Reaches altitude 10° 02:59:17 10° 193° (SSW) 2,797 5.4 -9.5°
Maximum altitude 03:05:36 51° 119° (ESE) 1,285 4.3 -8.7°
Drops below altitude 10° 03:12:11 10° 46° (NE) 2,915 7.8 -7.9°
Sets 03:14:57 0° 42° (NE) 3,903 9.1 -7.5°
